Погода в Левице

Словакия     48°12′52″N   18°36′19″E
темп.,
°C
ветер,
м/с
пор.,
м/с
влажн.,
%
обл.,
%
осадки,
мм/ч
давл.,
гПа
погр.,
м
18 мая, вт
вт1823:00+10зсз61392100 0.5 1005532
02:00+10зсз81591100 0.7 1007734
05:00+9зсз71590100 0.0 1007665
08:00+10зсз81487100 0.0 10101015
11:00+13зсз91277100 0.3 10101234
14:00+15сз9137524 1.5 10111475
17:00+16зсз7116858 0.3 10101785
20:00+12зсз48800 0.3 1011178
19 мая, ср
ср1923:00+9з349012 0.0 101357
02:00+8ссз338796 0.0 101338
05:00+7ссз3588100 0.0 101282
08:00+10ссз3582100 0.0 1013239
11:00+14сз5670100 0.0 1013972
14:00+13сз7977100 0.8 1012726
17:00+11с3885100 1.6 1012582
20:00+10ссв2288100 1.9 101243
20 мая, чт
чт2023:00+9ссз2794100 1.8 1013274
02:00+8сз3597100 6.9 1012206
05:00+8сз3996100 2.9 1013315
08:00+10сз61289100 3.8 1013629
11:00+13ссз71076100 0.0 10141049
14:00+15ссз6963100 0.1 10151598
17:00+15ссз6964100 0.4 10151140
20:00+12сз5117579 0.5 1017280
21 мая, пт
пт2123:00+8сз39895 0.0 1019154
02:00+7сз34930 0.0 102064
05:00+6ссз23930 0.0 102037
08:00+11ссз23783 0.0 1020303
11:00+15зюз226281 0.0 1019995
14:00+17юз2256100 0.0 10181240
17:00+18ююз345699 0.0 10161599
20:00+13юв2275100 0.0 101611
22 мая, сб
сб2223:00+10в3381100 0.0 101532
02:00+10в4782100 0.0 1014128
05:00+9в51086100 0.0 1012215
08:00+13вюв7157996 0.0 1011617
11:00+18ю81364100 0.0 10101948
14:00+17юз5974100 0.4 1010901
17:00+14зсз5788100 0.8 1009299
20:00+11зсз61094100 0.8 1012437